Theta_e
315 315 315 316 316 317 319 321 323 325 326 326 327 328 329 329 330 330 329 329 329 328 327 328 329 329 329 330 330 329 329 329 329 328 327 327 326 326 328 329 329 329 330 329 329 328 328 329 330 330 329 331 332 331 329 328 327 327 328 329 329 329 329 327 327 327 324 324 325 325 324 323 323 320 317 316 312 307 308 308 307 307 306 305 305
314 314 315 315 315 316 316 317 319 322 325 326 326 327 328 328 329 329 329 328 329 328 328 327 327 328 329 329 330 329 328 328 327 327 327 327 327 327 328 328 329 329 330 330 329 328 328 330 331 330 330 331 331 330 328 327 328 328 328 329 329 329 329 328 327 327 324 323 322 324 324 323 322 319 317 318 314 308 308 308 307 307 307 306 307
313 313 314 314 315 315 315 315 317 318 321 324 326 327 327 328 328 328 328 328 328 328 328 327 326 326 327 328 329 329 328 327 327 327 327 326 325 327 328 328 329 329 330 330 329 327 328 329 330 330 329 329 329 329 328 328 329 329 328 328 328 328 329 328 327 327 326 324 321 321 323 321 319 318 317 318 317 312 310 310 309 308 308 307 308
312 312 313 314 314 314 314 315 315 316 317 319 323 326 327 327 327 327 328 328 328 328 327 327 327 326 326 328 329 328 327 327 326 325 326 325 324 326 328 329 329 329 329 329 328 328 327 327 328 329 329 328 328 327 327 328 329 329 328 328 328 328 328 328 328 327 326 325 321 319 320 318 316 318 317 317 317 315 314 314 313 311 310 308 308
312 311 312 313 313 314 314 314 315 315 315 316 318 322 325 327 326 326 327 328 328 328 327 327 327 327 327 328 330 329 328 326 325 325 326 326 327 328 329 328 328 328 329 328 328 327 327 327 328 328 327 327 327 327 328 329 330 329 328 328 328 328 328 328 328 327 326 326 323 319 318 317 315 317 317 316 316 315 315 315 315 314 312 309 309
310 311 311 312 312 312 313 314 314 314 314 315 316 317 321 324 326 326 326 327 328 328 327 326 326 328 328 329 329 330 328 327 326 326 327 327 328 330 330 328 328 329 329 329 327 326 327 327 327 327 326 327 328 329 329 330 331 329 328 328 328 328 328 328 327 327 326 326 324 321 320 318 316 316 316 315 315 315 314 315 315 315 314 312 310
310 310 311 311 311 311 312 312 313 313 313 314 315 316 317 320 323 325 325 326 327 328 328 327 327 328 328 329 329 329 329 328 327 326 326 327 327 328 329 329 329 330 330 329 328 326 326 327 327 327 327 328 329 328 328 329 330 330 329 329 328 327 328 328 327 327 326 325 324 323 322 320 318 318 316 315 315 315 314 315 315 315 314 312 311
309 309 310 310 310 311 310 310 311 311 312 313 314 315 316 317 319 323 325 325 326 327 327 328 328 328 328 328 329 328 327 328 328 325 324 324 326 327 329 328 329 329 329 329 328 325 324 326 327 326 327 328 328 328 329 330 329 328 328 329 328 328 328 328 327 327 326 325 324 324 323 322 320 319 318 316 315 315 315 315 315 315 314 312 311
309 309 309 309 310 310 310 310 309 309 310 312 314 315 316 316 317 320 323 325 325 326 327 327 328 328 328 328 329 328 327 327 328 325 322 322 324 327 328 328 328 328 328 329 328 325 325 327 327 325 326 328 329 329 329 329 328 327 326 326 327 328 329 328 327 326 326 325 324 324 323 322 322 321 320 317 316 316 316 316 315 315 315 314 313
308 308 308 309 309 309 309 309 309 309 309 310 312 315 316 316 317 318 321 323 325 325 326 327 327 327 328 328 328 328 327 327 327 326 324 322 323 326 328 328 328 327 327 328 328 327 327 328 328 327 328 329 329 328 328 327 327 326 325 325 325 327 327 327 326 326 325 325 326 325 323 323 323 323 322 320 318 317 317 317 317 316 316 316 316
307 307 308 308 308 308 308 308 308 308 308 308 310 313 315 316 317 318 320 322 324 325 326 327 327 327 328 328 327 327 328 328 327 326 325 322 323 325 327 326 326 325 326 328 328 327 328 329 329 329 329 328 328 328 328 327 327 326 326 326 326 326 325 324 325 326 326 325 326 326 325 325 324 324 323 322 321 319 319 320 319 318 317 316 316
306 307 307 307 307 307 307 308 308 308 308 307 308 310 312 315 317 318 319 321 323 324 325 326 327 327 327 328 328 327 327 328 327 326 325 324 324 325 325 324 325 326 327 327 328 328 328 329 329 328 328 328 327 327 327 327 327 327 326 326 326 326 324 324 325 327 326 327 327 326 326 325 324 324 323 322 322 321 320 321 321 319 317 317 316
305 306 306 306 307 307 307 307 307 307 307 307 307 307 309 312 314 317 318 320 322 323 324 325 326 326 326 327 327 327 327 327 327 326 326 326 326 326 326 324 324 326 327 326 327 327 327 328 328 328 328 327 327 327 327 327 326 326 326 325 325 325 325 325 326 326 326 326 326 326 327 326 324 325 324 323 323 322 321 322 323 321 318 317 316
304 305 305 305 306 306 307 307 306 306 307 306 306 306 307 308 310 313 315 318 320 322 322 324 325 325 325 325 326 327 327 327 327 326 327 328 327 327 327 325 324 326 327 327 326 326 326 327 329 329 327 326 326 326 326 326 326 326 326 325 325 325 324 325 325 325 325 324 324 325 326 326 325 324 324 323 322 322 322 322 322 321 318 317 316
303 304 305 305 305 305 306 306 306 306 306 306 306 306 306 306 307 309 311 313 315 318 319 320 321 323 324 325 325 326 326 326 326 326 326 327 326 326 327 326 324 325 327 326 326 328 328 327 328 328 326 325 325 326 326 326 326 326 326 326 325 324 323 323 323 324 324 323 324 325 326 326 325 324 324 324 322 322 323 322 322 321 317 315 315
303 304 304 304 304 304 305 305 305 306 306 306 305 305 305 305 305 306 307 308 310 312 314 316 317 319 321 323 324 325 325 325 325 325 325 325 324 324 326 327 325 324 324 322 324 328 329 328 328 328 327 326 325 325 326 326 326 326 326 325 324 324 322 322 322 323 323 323 324 325 325 325 324 323 323 322 322 322 322 320 319 318 315 313 314
302 303 303 303 304 304 304 304 305 305 305 305 305 305 305 305 304 304 305 306 307 308 309 311 312 314 316 318 321 323 324 325 325 325 325 324 324 325 326 326 325 324 322 321 322 325 327 328 328 327 327 326 325 324 326 326 325 325 324 324 324 325 324 324 324 324 324 324 324 324 324 323 323 322 321 321 322 322 320 316 315 314 313 315 317
302 302 302 303 303 303 303 303 304 304 304 304 304 305 305 304 304 304 304 304 305 305 306 307 308 310 311 313 316 319 322 324 324 325 325 324 325 326 326 325 325 325 323 322 323 324 325 326 326 326 326 326 324 324 325 324 323 323 324 324 325 325 324 324 323 323 322 322 322 322 321 321 321 320 320 319 319 318 318 316 315 315 317 319 320
301 301 302 302 302 302 303 302 303 303 303 304 303 304 304 304 304 304 304 304 304 304 305 305 306 307 308 309 312 315 318 321 324 325 325 325 326 326 325 325 325 325 325 324 324 324 325 325 325 325 325 324 324 324 324 323 323 324 324 324 324 323 322 321 321 320 320 319 319 318 318 318 318 317 317 317 316 316 315 315 316 317 319 320 319
301 301 301 301 301 301 301 302 302 302 302 303 302 303 303 303 304 304 304 304 303 303 304 304 304 305 306 307 309 311 313 316 320 323 325 325 326 326 325 323 323 324 324 324 324 324 324 324 324 325 325 324 323 324 323 323 324 324 323 322 321 319 319 319 319 319 319 318 318 317 316 316 316 315 315 315 316 315 314 315 316 316 316 316 315
301 301 301 301 301 300 300 300 301 302 302 302 302 302 302 302 302 303 303 303 303 304 303 303 303 304 304 305 306 307 309 310 313 318 321 323 324 325 323 323 323 324 324 323 323 323 324 324 324 325 325 324 323 323 323 324 324 324 322 321 319 318 318 318 318 318 318 318 317 316 315 315 315 315 316 316 315 315 315 315 315 314 314 314 312
301 300 300 300 300 300 299 299 300 301 301 301 301 301 301 301 301 301 301 302 302 303 303 303 303 303 304 304 304 305 306 307 309 312 315 318 321 322 322 321 323 323 323 322 322 322 324 324 324 324 324 323 323 323 323 323 324 323 321 320 318 318 318 317 317 317 316 316 315 315 314 314 314 313 313 313 312 311 311 310 310 309 310 310 309
300 300 300 300 300 300 299 299 299 300 300 301 301 300 300 300 300 301 301 301 301 301 302 302 302 303 303 304 304 304 304 305 306 308 310 312 315 318 318 318 319 320 321 321 321 323 323 323 323 323 323 322 322 322 322 323 323 322 321 319 318 317 316 316 315 315 315 314 314 314 313 312 310 309 309 309 308 308 307 307 306 305 305 305 303
300 300 300 300 300 299 299 299 299 299 300 300 300 300 300 299 299 300 300 300 300 300 300 300 301 301 301 302 303 303 303 304 304 305 307 308 310 312 312 313 315 316 318 318 318 320 321 322 322 322 321 322 322 323 323 322 321 319 318 317 316 315 314 314 313 313 314 314 314 314 313 311 309 308 307 307 306 305 305 304 303 302 301 300 299
300 300 300 300 299 299 299 299 299 299 299 299 299 299 299 299 299 299 299 299 299 299 299 299 299 299 299 300 300 301 302 303 303 304 304 304 305 307 307 308 310 313 315 315 315 317 318 319 320 321 321 321 321 322 321 320 317 316 316 315 314 313 313 313 313 313 312 311 310 309 308 307 306 305 304 303 302 302 301 300 299 298 298 297 297
299 300 300 299 299 299 299 299 299 299 298 298 298 299 299 299 298 298 298 298 299 299 299 299 299 299 298 298 299 299 300 301 302 303 303 303 303 303 304 304 305 308 310 311 312 313 314 314 315 317 317 316 316 317 316 315 313 313 312 312 311 310 310 309 309 307 306 305 305 304 304 303 303 302 301 300 299 298 297 297 296 296 296 296 296
299 299 299 299 299 299 299 298 299 299 298 298 298 298 298 298 297 297 297 297 298 298 299 299 298 299 298 298 298 298 299 300 301 301 302 302 302 302 303 303 304 305 305 306 307 308 308 308 309 310 311 311 311 311 310 308 308 308 307 307 306 305 305 305 304 304 303 303 302 302 302 301 301 299 298 297 296 296 296 296 296 296 296 296 296
299 299 299 298 299 299 298 298 298 298 298 298 298 297 297 297 296 295 295 296 297 298 298 298 298 298 298 298 298 298 298 298 299 300 300 301 302 302 303 303 303 303 303 303 304 304 305 305 306 306 306 306 306 306 305 304 304 304 304 303 303 302 302 302 302 301 301 300 300 299 299 298 297 297 296 296 296 296 296 296 296 296 297 297 297
298 298 298 298 298 298 298 298 298 298 298 298 298 297 297 296 296 295 294 295 296 297 298 298 298 298 298 298 298 298 298 297 297 298 299 300 301 301 302 302 303 303 302 302 303 303 304 304 304 303 303 303 303 303 302 302 302 302 302 301 301 301 301 301 301 300 300 299 297 297 296 296 296 296 296 296 296 296 296 296 297 297 297 298 299
298 298 298 298 298 298 298 298 298 298 298 298 298 297 297 296 296 295 294 294 295 297 297 298 298 298 298 298 299 298 298 298 298 298 298 299 300 300 301 301 301 301 301 302 302 302 302 302 302 302 302 302 302 301 301 301 301 300 300 300 300 300 300 300 300 300 299 298 297 296 296 296 296 296 296 296 296 297 296 296 297 297 296 297 298
298 298 298 298 298 298 298 298 298 298 298 297 297 297 297 297 296 296 295 295 295 296 297 297 298 298 298 299 299 299 299 299 299 298 299 299 299 299 300 300 300 300 300 300 300 300 300 300 300 300 300 300 300 300 300 300 300 299 299 299 299 298 298 298 298 298 298 298 297 297 297 296 296 297 297 297 296 296 296 296 296 296 296 297 297
298 298 298 298 298 298 298 298 298 298 297 297 297 297 297 297 297 296 296 295 295 295 295 296 297 298 298 298 299 299 299 299 299 299 299 299 299 299 299 299 299 299 299 299 299 299 298 298 298 298 298 298 298 298 298 298 298 298 298 298 298 297 297 297 297 297 297 297 296 296 297 296 296 296 296 296 296 296 295 295 295 295 296 296 296
298 298 298 298 298 298 298 298 298 298 298 297 297 297 297 297 297 296 296 296 295 295 295 295 295 296 297 297 298 298 298 298 298 298 298 298 298 298 298 298 299 299 299 298 298 298 297 297 297 297 297 297 297 297 296 296 296 296 296 296 296 296 296 296 296 296 296 296 296 296 296 296 296 296 295 295 295 295 295 295 295 295 295 295 295
299 298 297 298 299 298 298 298 298 298 298 297 297 297 297 297 297 296 296 296 296 295 295 295 294 294 294 295 296 297 297 297 297 297 297 297 297 298 298 298 298 298 298 298 298 297 297 297 296 296 296 296 295 295 295 295 295 295 295 295 295 295 295 295 295 295 295 295 295 295 295 295 295 294 294 294 294 294 294 294 294 294 295 295 295
299 298 298 298 299 298 298 298 298 297 297 297 297 297 297 297 297 296 296 296 296 295 295 295 294 293 293 294 295 296 296 296 297 297 297 297 297 297 298 298 297 298 298 298 297 297 296 296 296 295 295 295 295 295 295 295 295 295 295 295 295 295 295 295 295 295 295 294 294 294 294 294 293 293 293 293 294 293 293 293 293 294 294 295 295
299 299 299 299 299 298 298 298 298 297 297 297 297 297 297 297 296 296 296 296 295 295 295 295 294 293 293 293 293 294 294 295 296 296 297 296 296 296 297 297 297 297 297 297 297 296 296 295 295 295 295 295 295 295 295 295 295 295 295 295 294 294 294 294 293 293 293 293 293 293 293 293 292 292 293 293 293 293 292 292 292 293 294 294 295
299 298 298 298 298 298 298 298 297 297 297 297 297 297 297 297 296 296 296 296 295 295 295 294 294 293 293 293 293 293 293 294 294 295 295 296 296 296 296 296 296 296 296 296 296 295 295 295 295 295 295 295 295 295 295 294 294 294 294 294 293 293 293 292 292 292 292 292 292 292 292 292 292 292 292 292 292 292 293 292 292 292 293 294 294
299 298 297 297 298 298 298 298 297 297 297 297 297 297 297 296 296 296 296 296 295 295 295 294 294 293 293 293 293 293 293 294 294 294 294 295 295 295 296 296 295 295 295 295 295 294 294 294 294 294 295 295 295 295 294 294 294 293 293 293 292 292 292 292 292 292 291 291 291 291 291 292 292 292 292 292 292 292 293 293 293 293 293 293 294
298 298 297 296 297 298 298 298 298 297 297 297 297 297 297 296 296 296 296 296 295 295 295 294 294 293 292 292 293 293 293 293 293 293 293 293 294 294 294 295 295 295 295 295 294 294 294 294 294 294 295 294 294 294 293 293 293 292 292 292 292 291 291 291 291 291 291 291 291 291 291 291 292 292 292 292 292 292 292 292 293 293 293 293 293
298 298 297 297 297 298 298 298 298 297 297 297 297 297 297 297 296 296 296 296 295 295 294 294 294 293 292 291 292 292 292 292 292 292 292 292 292 293 293 294 294 294 294 294 294 294 294 294 294 294 294 293 293 293 292 292 292 292 292 292 291 291 291 291 291 291 291 291 291 291 291 291 292 292 291 292 292 292 292 292 292 292 293 293 293
298 298 298 297 298 298 298 298 297 297 297 297 297 297 297 297 296 296 296 295 295 295 294 294 294 293 292 291 292 293 292 292 292 292 292 292 292 292 293 293 293 294 294 294 294 294 294 294 293 293 293 292 292 292 292 292 292 292 291 291 291 291 291 291 291 291 291 291 291 291 291 291 291 291 291 292 292 292 292 292 292 292 292 292 293
298 298 297 297 297 297 297 298 297 297 297 297 297 297 296 296 296 296 296 295 295 295 295 294 294 293 292 292 292 293 293 293 292 292 292 292 292 292 293 293 293 293 293 293 293 293 293 293 292 292 292 292 292 292 292 292 292 292 291 291 291 291 291 291 290 290 291 291 291 291 291 291 291 291 291 292 292 292 292 292 292 292 292 292 292
297 297 297 297 297 297 297 297 297 297 297 296 296 296 296 296 296 296 296 295 295 295 294 294 293 293 293 292 292 293 293 293 293 292 292 292 292 292 292 293 293 293 293 293 293 293 292 292 292 292 292 292 292 292 292 292 292 291 291 291 291 291 291 291 291 291 291 291 291 291 291 291 291 291 291 291 291 291 291 292 292 292 292 292 292
297 297 296 296 296 296 296 297 297 297 296 296 296 296 296 296 296 296 295 295 295 295 295 294 293 293 293 293 293 293 293 293 293 292 292 292 292 292 292 292 292 293 293 293 293 292 292 292 292 292 292 292 292 292 292 292 291 291 291 291 291 291 291 291 291 291 291 291 291 291 291 291 291 291 291 291 291 291 291 291 291 292 292 292 292
296 296 296 296 296 296 296 296 296 296 296 295 296 296 296 296 296 296 295 295 295 295 295 294 294 294 293 293 293 293 293 293 293 292 292 292 292 292 292 292 292 292 292 292 292 292 292 292 292 292 292 292 292 292 292 291 291 291 291 291 291 291 291 291 291 291 291 291 291 291 291 291 291 291 291 291 291 291 291 291 291 291 291 291 291
295 295 296 296 296 295 295 295 295 295 295 295 295 295 296 296 296 296 295 295 295 295 295 295 294 294 294 294 293 293 293 293 292 292 292 292 292 292 292 291 292 292 292 292 292 292 292 292 292 292 291 291 291 291 291 291 291 291 291 291 291 291 291 290 290 290 291 291 291 291 291 291 291 290 290 290 291 291 290 290 290 290 291 291 291
294 293 294 296 296 295 295 295 295 295 295 295 295 295 295 296 296 296 295 295 294 295 295 294 294 295 294 294 293 293 293 293 292 292 292 292 292 292 291 291 291 292 292 292 292 291 291 291 292 292 291 291 291 291 291 291 291 291 291 291 291 291 290 290 290 290 290 290 290 291 291 291 291 290 290 290 290 290 290 290 290 290 290 291 291
293 293 294 295 295 295 294 294 294 295 295 295 295 295 295 295 295 295 295 295 295 295 294 294 294 294 294 294 294 293 293 293 293 292 292 292 291 291 291 291 291 291 291 291 291 291 291 291 291 291 291 291 291 291 291 291 290 291 291 291 290 290 290 290 290 290 290 290 290 290 290 290 290 290 289 289 289 289 289 289 289 290 290 291 291
292 293 294 295 295 294 294 294 294 294 295 295 295 295 295 295 295 295 295 295 295 295 294 294 294 294 294 294 294 294 293 293 293 293 292 292 291 291 291 291 290 290 290 290 290 290 291 291 291 291 291 290 290 291 290 290 290 290 290 290 289 289 289 289 290 290 290 290 290 290 289 289 289 288 288 287 288 288 287 287 288 289 290 290 291
293 293 294 294 294 294 294 294 294 294 294 295 295 295 295 295 295 295 295 295 295 295 294 294 294 293 293 294 293 293 293 293 293 292 292 292 291 291 291 291 291 290 290 290 290 289 289 289 289 289 288 288 289 289 289 290 290 289 289 289 289 290 290 290 290 290 290 290 290 290 289 289 289 288 287 286 286 286 286 286 286 288 289 290 291
294 294 294 294 294 294 294 294 294 294 294 294 294 295 295 295 295 295 295 295 295 295 294 294 294 293 293 293 293 293 293 293 293 292 292 292 292 292 292 292 291 291 290 290 290 290 289 289 289 288 287 286 287 287 288 288 288 287 287 288 289 290 290 290 290 290 290 290 290 290 289 289 288 287 286 285 285 285 285 285 286 287 289 290 291
Wind_Speed
17 17 16 16 15 14 13 12 12 11 12 13 13 13 13 13 13 14 14 14 14 15 15 15 15 15 15 16 18 19 20 21 24 26 26 25 27 28 26 25 26 27 28 28 28 27 27 27 26 25 23 22 21 22 25 26 23 21 18 17 18 18 17 16 13 12 13 11 12 15 15 16 17 16 16 17 19 20 18 18 17 16 16 16 15
17 17 15 15 16 15 14 13 12 12 12 12 13 13 14 14 13 13 14 14 15 15 15 15 17 18 17 16 18 20 20 20 22 24 24 24 25 26 26 27 28 27 27 28 29 29 28 28 28 27 26 25 23 24 28 27 23 21 20 19 19 18 18 17 15 13 13 12 11 13 16 17 16 16 17 17 19 19 18 18 17 16 16 16 15
17 17 15 15 16 15 15 14 13 13 12 12 13 14 15 15 13 13 14 14 16 16 16 16 18 20 19 17 18 21 22 21 22 22 21 21 23 24 26 28 28 27 28 29 29 30 31 31 30 29 30 29 28 28 28 26 23 21 20 19 19 18 18 18 17 15 13 13 13 13 16 18 17 15 17 17 17 18 18 17 17 17 17 17 15
16 16 15 15 15 14 15 14 14 14 13 12 13 14 16 16 15 14 13 15 16 17 18 18 17 19 20 17 18 22 25 24 23 21 20 21 24 25 26 28 29 29 29 30 31 30 31 33 32 31 31 31 30 29 27 25 24 23 21 20 19 18 18 18 17 16 14 14 14 14 15 18 18 15 15 17 17 17 17 16 16 16 16 16 15
16 16 15 15 15 14 15 15 14 14 14 14 13 13 15 17 18 16 14 14 17 18 19 19 17 16 17 16 17 21 24 24 23 22 21 22 24 25 27 29 30 30 30 30 31 31 31 32 33 32 32 31 30 30 29 26 24 23 22 21 20 19 18 18 18 17 16 15 16 15 14 16 17 16 15 16 16 17 17 16 16 16 16 17 16
16 16 16 16 16 15 16 16 16 16 16 16 15 14 14 16 19 19 16 14 15 17 18 19 18 16 16 17 17 20 22 22 23 22 21 22 22 24 27 28 28 28 30 31 31 31 30 30 31 33 33 32 32 32 31 27 25 24 23 21 20 19 18 18 19 18 18 17 17 16 15 15 16 17 17 16 16 17 17 17 17 16 16 18 17
17 16 16 17 17 16 16 17 17 17 17 17 17 16 15 15 17 19 18 15 13 15 16 17 17 16 17 19 19 20 21 21 22 23 22 21 22 24 26 27 26 27 29 30 31 30 28 29 31 32 32 33 33 32 30 27 25 26 24 22 20 20 19 19 20 20 19 21 20 18 16 17 17 16 17 18 17 17 17 17 18 17 18 19 18
18 17 17 18 18 17 17 17 17 18 18 18 17 17 17 16 16 17 18 17 14 14 15 16 15 17 20 20 20 22 23 21 22 24 23 21 21 22 24 25 26 27 28 29 29 28 28 30 30 30 30 30 29 28 26 26 27 28 26 24 22 21 20 20 21 21 20 22 24 22 18 17 18 17 16 18 19 19 18 18 17 17 18 19 19
17 18 18 19 18 17 17 17 17 18 19 19 19 18 17 17 15 15 16 17 16 14 15 16 16 18 20 20 20 24 25 24 23 25 25 22 21 21 22 23 24 26 28 28 28 30 30 29 29 30 31 29 27 26 25 26 28 29 29 29 27 24 22 21 22 23 23 21 23 25 24 20 20 19 18 20 22 20 18 18 18 17 16 17 17
18 19 19 19 18 18 17 17 18 20 19 20 20 19 18 17 16 14 14 15 16 14 13 15 16 17 19 20 21 22 24 25 26 26 25 23 23 22 21 22 23 25 27 27 28 29 28 26 27 30 31 28 27 27 27 27 27 28 29 30 29 28 27 25 24 24 24 21 21 26 28 26 24 23 22 23 24 21 18 19 21 18 16 16 15
20 19 19 19 18 18 18 17 19 21 20 20 21 21 19 18 16 14 13 13 15 15 13 12 13 16 18 20 20 21 24 25 25 25 24 24 23 22 20 21 23 25 26 27 27 27 27 27 26 26 26 26 26 26 26 27 26 26 27 27 29 30 28 27 26 24 22 21 22 23 24 26 27 25 25 26 25 23 21 20 21 20 18 18 16
22 20 20 20 18 18 18 18 19 21 21 22 22 22 22 19 17 14 11 11 12 13 13 12 11 13 17 19 20 22 23 23 24 24 24 25 25 23 21 22 24 26 27 26 25 25 27 27 24 23 24 25 25 26 26 27 27 26 27 27 28 29 29 28 27 24 22 22 23 21 20 23 25 24 27 28 25 24 23 21 20 20 19 20 18
22 21 21 21 19 19 19 20 20 20 21 22 23 25 26 25 20 16 13 10 9 10 12 13 12 13 16 18 18 20 21 22 24 25 25 26 26 23 23 23 24 26 27 25 23 23 23 22 20 21 23 23 24 25 26 27 27 27 27 27 27 28 28 29 28 27 25 23 22 20 19 21 22 21 24 26 23 22 23 21 20 19 19 19 17
21 21 21 22 20 20 20 20 20 20 20 21 23 26 29 31 27 22 18 13 10 9 10 13 14 15 17 16 15 18 21 21 24 25 24 23 23 22 23 24 23 23 22 21 19 19 19 19 19 20 22 22 23 24 24 25 25 25 26 25 25 25 26 27 28 27 27 25 22 19 18 19 20 21 24 27 26 24 21 19 18 17 17 17 17
21 21 21 22 21 21 21 21 21 21 20 21 23 25 28 32 33 29 25 20 15 12 11 12 14 16 18 18 17 19 21 23 24 24 24 22 22 23 24 23 23 22 20 18 16 14 16 17 18 20 21 21 21 23 23 23 23 24 24 23 23 24 24 24 25 25 25 26 24 21 20 21 21 23 25 27 27 27 24 19 18 18 18 19 21
22 21 21 22 22 22 22 21 21 21 21 21 23 24 25 27 32 33 32 28 24 19 15 13 13 15 17 20 21 21 21 23 23 23 24 23 23 25 24 22 22 22 21 20 18 15 15 15 17 20 21 20 20 22 22 22 22 22 22 23 23 23 22 21 22 22 22 24 24 23 23 23 23 23 24 23 25 29 27 21 20 21 19 18 17
24 23 21 22 22 22 23 22 21 21 21 22 22 23 22 22 24 28 31 32 30 27 23 19 16 15 15 17 20 21 22 24 23 23 24 24 24 25 24 21 21 21 22 23 22 19 18 18 19 21 22 21 21 22 22 21 21 21 21 22 22 21 21 20 21 21 21 22 22 23 24 23 21 21 21 21 24 28 25 19 19 20 17 14 13
24 24 22 21 22 22 22 22 22 22 22 22 22 21 21 20 19 19 22 26 28 28 27 24 21 18 16 15 16 18 21 23 23 22 23 25 26 26 25 22 20 22 23 24 24 25 24 22 22 22 22 21 22 22 22 21 20 21 21 21 21 21 21 21 20 19 19 19 20 21 21 21 20 19 19 18 19 21 20 17 15 14 13 14 14
23 23 23 23 22 22 21 20 21 22 22 22 21 21 20 20 19 17 17 18 20 23 26 26 25 23 20 17 14 14 18 21 23 23 23 26 27 26 25 23 20 22 25 24 24 27 27 24 24 24 21 19 22 24 23 21 22 22 21 21 21 21 20 19 17 17 16 16 16 17 17 17 16 15 14 14 14 15 17 17 15 15 16 17 17
21 22 23 24 24 25 23 21 20 21 22 22 21 20 20 20 20 19 18 17 16 18 21 24 25 25 23 21 17 13 14 16 21 24 24 25 26 26 26 23 18 18 23 25 24 26 26 24 25 25 20 18 23 26 24 23 24 22 21 22 21 20 19 18 17 16 15 14 14 13 13 13 13 12 12 13 13 14 15 15 15 15 15 15 14
19 20 22 23 24 26 27 25 21 20 21 22 21 20 19 19 20 20 20 20 18 17 18 19 22 24 24 23 21 18 16 15 15 18 21 23 24 25 26 26 23 21 23 25 24 24 26 27 26 24 21 20 24 26 27 28 26 23 23 23 21 19 19 19 18 16 15 14 14 14 14 14 13 13 13 12 12 12 12 12 12 12 12 11 10
18 19 21 22 23 25 27 27 24 21 21 21 21 21 20 19 19 19 20 21 21 20 19 17 18 20 23 24 24 23 20 18 16 14 15 17 20 23 24 26 28 28 27 26 25 26 28 28 25 24 23 23 25 28 30 30 27 25 25 23 20 18 18 19 19 18 17 17 17 16 15 14 13 13 13 12 11 10 10 9 9 10 10 10 10
17 18 20 21 21 22 24 26 26 23 22 21 21 22 22 21 20 20 20 20 20 21 22 21 20 18 19 21 23 25 24 22 19 15 13 12 13 16 17 21 25 26 25 26 27 28 29 26 24 23 23 24 26 28 28 28 27 25 23 21 19 18 19 20 21 21 21 21 20 18 17 16 15 14 13 12 11 10 9 9 9 9 9 9 10
17 17 19 20 21 21 22 23 25 24 23 22 22 23 24 24 23 22 21 20 20 20 20 22 23 22 20 18 19 21 23 24 23 20 17 13 7 4 5 11 17 20 20 22 23 24 25 24 23 23 23 25 27 29 28 28 26 23 21 20 20 20 23 25 25 24 23 22 21 20 19 17 15 14 12 10 10 9 9 9 9 9 9 9 10
18 17 17 19 20 20 20 21 24 25 24 23 22 23 24 25 25 24 22 21 21 20 20 20 22 24 24 21 18 17 17 19 21 23 22 19 14 11 8 3 3 8 12 14 14 16 18 20 21 23 25 27 30 31 30 28 25 23 22 21 21 21 23 24 22 20 19 18 17 16 15 13 12 11 9 9 9 9 8 8 8 8 8 8 9
18 17 18 18 19 20 21 21 22 23 24 25 24 23 22 24 25 25 23 22 21 21 20 20 20 22 23 23 20 17 15 14 16 19 21 21 20 18 15 12 10 8 8 8 8 9 10 12 15 20 22 22 23 24 23 23 23 23 21 20 19 19 18 18 16 15 14 14 12 11 10 9 8 7 7 7 7 6 6 6 6 7 7 8 8
18 18 18 18 18 19 21 21 21 20 21 23 25 25 23 23 26 28 27 25 23 22 21 20 19 19 20 21 20 19 18 15 13 15 17 18 19 19 18 16 16 16 15 12 12 12 12 11 11 12 14 15 15 16 17 19 20 21 21 20 18 17 16 14 12 10 9 8 7 6 6 6 6 6 6 6 6 6 6 5 5 5 5 5 5
17 18 18 18 18 18 20 21 21 20 19 20 24 26 25 24 26 29 29 28 27 25 23 21 20 18 18 20 21 21 22 20 16 14 13 13 13 14 15 16 18 19 20 18 18 18 18 18 18 18 17 18 19 20 20 21 22 22 21 20 19 18 16 14 12 10 9 7 5 3 4 5 6 6 6 6 6 5 5 6 5 5 5 3 2
16 17 18 18 18 18 19 20 20 20 20 20 23 25 26 26 27 28 27 25 25 26 24 23 22 19 17 19 22 22 23 23 20 15 12 9 8 9 10 12 14 16 17 18 19 20 21 22 22 22 22 22 23 22 21 20 20 21 20 18 17 17 16 15 14 13 12 11 8 4 2 3 4 4 4 4 4 4 4 4 5 5 6 5 4
14 15 17 18 18 18 19 19 20 20 19 20 21 21 23 25 28 29 28 24 21 22 22 23 22 19 17 19 21 21 19 19 18 17 15 14 14 14 15 15 16 16 15 15 15 17 18 19 19 19 18 18 18 18 16 15 15 16 16 15 14 14 13 13 12 12 12 12 10 7 4 3 3 3 3 3 3 4 4 5 5 5 6 7 7
13 14 15 16 17 18 18 18 19 19 19 19 19 19 20 22 25 28 29 26 22 19 19 19 19 18 17 18 18 17 16 15 15 15 16 18 19 19 20 20 21 20 18 16 17 18 18 17 17 16 15 15 15 14 14 13 12 12 13 13 12 12 12 11 11 10 8 8 7 6 4 3 2 3 3 4 5 6 6 6 6 6 7 7 7
13 13 13 14 16 16 17 17 18 18 19 19 19 19 19 20 22 24 26 26 24 21 18 16 16 16 16 16 15 15 15 16 15 14 14 15 17 18 20 20 21 21 20 18 19 20 19 18 18 17 15 15 14 14 13 13 12 12 12 12 11 11 10 9 8 7 6 5 5 5 5 5 5 6 6 6 6 6 7 7 7 7 7 7 6
12 12 12 13 14 15 15 16 17 17 18 18 18 19 19 19 19 20 22 23 24 23 21 19 17 15 14 14 14 14 15 16 16 16 14 14 14 14 15 16 17 17 17 17 17 18 17 16 16 15 14 13 13 12 12 11 11 11 10 9 9 8 7 7 7 7 7 7 7 8 8 8 8 8 8 7 7 7 7 8 7 7 6 5 5
12 12 12 12 13 14 14 14 15 16 16 17 17 18 18 19 19 19 19 20 21 21 22 22 21 19 16 13 12 12 12 12 14 15 14 14 13 12 12 12 12 12 13 15 15 15 15 14 13 13 12 11 11 10 9 8 8 7 7 6 6 6 7 8 9 9 10 10 10 10 10 10 10 9 8 8 8 7 8 8 8 7 7 6 6
11 12 12 12 12 12 12 13 14 14 15 15 16 17 18 18 18 18 19 19 19 19 19 20 23 24 22 17 13 11 10 10 10 11 12 12 13 11 10 11 11 10 11 12 12 12 12 11 10 10 9 8 8 7 6 6 6 6 6 7 8 9 10 11 11 11 11 11 11 10 10 10 10 10 9 9 9 9 8 8 8 8 8 7 7
10 10 11 10 10 11 11 11 11 13 14 14 15 16 17 18 18 18 18 18 18 18 18 19 20 21 20 18 15 11 10 10 9 9 9 10 11 10 9 10 10 10 9 9 10 10 10 9 8 7 7 6 6 7 7 7 8 8 9 10 11 12 12 12 12 11 11 11 11 11 10 10 10 9 9 8 9 9 8 8 8 8 9 8 7
9 10 10 9 9 9 10 10 10 13 14 14 14 15 16 17 18 18 18 17 17 17 18 19 20 20 20 20 17 13 11 11 11 9 9 9 10 9 8 7 7 7 7 7 8 8 7 7 6 6 6 6 7 8 8 9 9 10 10 11 12 12 12 12 11 11 11 11 10 10 10 11 11 10 9 8 8 8 7 7 7 8 9 10 8
9 10 11 10 8 8 9 9 10 12 13 13 13 14 15 16 17 17 18 17 17 17 17 18 19 20 21 21 17 13 10 10 10 9 9 9 9 8 7 6 6 5 5 5 5 5 5 5 6 7 7 8 8 9 9 10 10 10 11 12 12 11 11 10 10 10 10 10 10 9 10 10 10 9 8 8 8 8 7 7 6 6 7 7 6
9 10 11 10 8 7 8 8 9 10 11 12 13 14 14 15 16 17 17 17 16 16 17 18 18 18 20 21 18 14 11 11 12 12 11 10 9 8 8 7 6 5 5 4 4 4 5 5 6 8 9 9 9 9 10 10 11 11 12 11 10 10 10 10 9 10 10 9 9 9 9 10 9 8 8 8 8 8 8 8 7 6 5 5 5
8 9 10 10 9 8 8 8 8 9 10 11 13 13 13 14 15 15 16 17 16 15 15 17 16 16 19 22 20 16 14 13 12 12 12 10 9 8 8 8 7 6 6 5 5 5 6 6 7 8 9 9 10 10 10 10 10 10 9 8 7 8 8 8 9 9 9 9 9 8 9 8 7 7 7 8 7 7 7 6 6 6 6 5 5
7 7 9 10 10 9 8 8 8 9 9 11 12 13 12 12 13 14 15 15 15 14 15 15 14 14 18 22 20 16 14 13 12 12 12 10 9 8 8 7 7 6 6 6 7 7 7 8 8 8 8 8 8 9 9 8 7 7 7 7 7 8 8 8 9 9 9 8 8 7 7 6 6 6 7 7 7 6 5 5 5 5 5 4 4
6 7 7 8 8 8 8 8 9 9 10 11 12 12 12 11 11 12 14 14 14 13 13 14 14 14 16 19 17 15 13 13 12 12 12 10 10 10 10 9 8 8 7 8 8 8 8 8 8 8 8 8 7 7 7 6 6 6 6 6 7 7 7 7 8 9 8 7 7 7 7 7 6 6 7 6 6 5 5 5 4 4 4 3 3
5 6 6 7 8 8 8 9 9 9 10 11 12 12 11 10 10 11 12 12 12 12 12 12 13 13 14 15 15 14 13 12 11 11 11 10 9 9 9 9 9 9 9 8 8 8 7 7 7 7 7 7 6 6 6 6 6 6 6 6 6 6 6 6 7 7 6 5 6 7 7 6 5 5 5 5 5 5 5 5 4 4 4 3 3
5 5 6 6 7 7 8 9 9 9 10 12 12 12 10 9 9 11 12 12 12 12 11 11 11 12 12 12 12 12 12 11 11 10 10 10 8 7 6 6 6 7 7 7 7 7 6 6 6 6 5 5 5 5 5 6 6 6 6 6 6 6 5 5 5 5 5 5 5 5 5 5 4 4 3 4 4 4 4 4 4 4 4 3 3
5 5 5 6 6 7 7 8 8 9 10 11 11 11 10 9 9 10 11 12 11 11 11 11 10 10 11 11 11 11 10 10 10 9 9 9 8 6 5 4 4 4 4 5 5 5 5 5 5 5 5 4 4 4 4 4 5 5 5 5 5 5 5 5 6 5 5 5 4 3 3 3 3 2 2 2 3 2 2 3 3 3 3 4 3
5 5 4 5 6 7 7 7 8 8 9 10 10 10 10 9 8 8 10 11 10 10 11 11 10 9 8 9 10 10 9 9 8 8 8 8 7 6 5 5 4 4 3 3 3 3 3 3 4 4 4 4 4 3 3 3 3 3 4 3 3 3 3 4 5 5 4 5 4 2 1 1 2 1 0 2 2 2 1 1 2 2 2 2 3
5 4 4 4 5 6 7 7 8 8 9 9 10 9 9 9 8 8 9 11 11 10 10 11 10 9 8 8 8 8 8 7 7 7 7 7 6 5 5 5 5 3 3 3 3 2 2 2 2 2 2 2 2 3 3 2 2 2 2 2 3 3 4 5 4 3 2 3 4 3 3 2 2 2 2 1 1 2 1 1 1 0 1 1 2
4 3 3 4 5 6 7 7 8 8 8 8 9 9 9 9 8 8 8 9 10 10 10 10 11 10 10 8 7 7 6 5 6 6 6 7 7 5 4 5 5 4 3 3 2 2 1 2 1 1 1 1 1 1 1 1 2 2 2 3 5 6 7 6 5 3 1 2 2 2 2 1 1 2 3 4 4 3 2 2 3 2 1 0 0
3 2 2 3 5 6 7 8 9 9 9 9 9 9 8 8 9 8 8 8 9 9 10 10 11 11 10 9 8 8 6 5 6 5 4 5 7 6 5 6 7 6 4 4 4 4 3 2 1 1 1 1 1 1 1 1 2 3 4 6 6 6 7 6 4 3 3 2 1 2 2 2 3 3 4 5 5 5 4 4 4 3 2 1 1
3 3 3 4 5 6 7 8 9 9 9 9 9 8 8 8 8 8 8 8 9 9 9 9 10 10 10 9 9 9 8 6 6 5 4 3 5 6 6 7 8 6 4 4 5 6 5 4 3 3 4 3 3 3 3 3 4 5 6 6 6 6 6 5 4 3 2 1 0 1 2 4 4 3 3 4 4 4 4 5 5 5 3 2 1
4 3 3 4 5 6 7 8 9 9 10 9 9 8 8 8 8 8 9 9 8 8 8 8 8 9 9 9 8 8 8 7 7 6 4 3 4 5 6 6 6 5 4 4 4 4 4 4 3 4 4 3 2 3 4 5 6 6 5 5 6 6 6 5 4 3 2 2 1 1 2 5 6 5 3 3 3 4 4 4 5 6 5 2 2
Wind_Direction
17 14 12 7 1 354 345 333 320 306 299 294 287 287 286 281 278 278 276 278 277 271 268 266 262 259 258 256 248 237 228 224 216 207 209 215 221 230 234 231 230 230 231 231 228 225 222 219 222 221 215 210 209 208 208 208 207 206 206 208 210 215 215 211 213 203 187 194 203 201 200 196 198 204 200 205 214 212 207 209 211 208 206 206 204
21 14 6 4 3 359 351 341 327 310 298 288 280 279 282 282 281 278 276 277 276 273 272 272 272 267 259 255 247 231 220 217 214 210 211 215 223 231 235 234 233 230 228 229 228 225 222 220 221 219 216 215 212 211 212 209 208 209 208 208 210 212 212 210 215 207 190 192 195 193 197 198 200 204 201 204 213 213 210 213 213 212 212 212 211
24 17 3 359 2 360 355 347 334 321 305 287 274 266 268 275 279 280 279 278 276 275 274 273 273 270 263 255 243 227 217 216 219 221 217 214 223 234 236 233 232 229 227 227 227 225 223 223 223 222 220 220 217 215 214 211 210 210 209 209 210 212 211 211 214 212 200 196 193 192 200 203 200 202 204 204 209 211 211 214 216 217 220 219 217
20 14 2 358 359 359 359 353 340 332 319 299 282 266 261 263 268 273 276 276 274 272 271 268 265 266 264 254 236 225 221 219 221 225 224 220 225 233 236 234 231 230 228 228 229 227 225 224 223 222 221 220 220 217 213 211 211 211 210 210 210 210 211 210 211 212 207 201 196 194 201 204 200 197 201 203 206 208 208 212 216 218 224 226 221
8 4 0 359 358 359 2 1 351 339 328 316 300 278 264 258 259 263 268 273 272 268 266 263 257 258 259 248 228 221 222 222 223 226 228 229 231 234 234 233 232 232 229 229 229 229 228 225 224 224 223 221 219 213 209 208 209 209 210 211 209 208 209 208 208 210 208 202 197 194 197 200 200 198 198 200 204 207 208 210 214 216 222 225 222
0 0 1 360 358 359 1 3 1 351 338 328 318 302 281 264 257 257 259 267 271 265 262 259 254 250 249 241 228 222 223 223 224 227 229 232 233 234 234 232 230 230 230 229 229 228 226 225 226 225 222 221 217 212 208 205 205 207 209 209 208 208 208 208 207 207 207 202 195 194 197 197 196 199 201 200 202 206 207 210 215 216 219 224 223
1 1 2 1 359 359 359 359 0 358 350 339 329 321 306 284 266 258 253 254 263 264 260 257 254 249 243 236 229 226 224 224 225 227 229 231 231 232 234 231 227 228 232 230 227 227 225 225 226 224 220 220 219 214 210 205 205 208 207 206 208 210 210 209 207 206 209 208 201 198 203 203 200 202 204 204 206 208 208 211 216 217 222 228 227
3 3 3 4 2 359 359 359 357 357 358 352 341 331 320 305 286 268 257 251 251 256 256 253 249 248 244 237 232 230 227 224 226 230 230 230 232 233 233 232 228 228 230 227 222 223 222 221 223 222 220 220 218 214 210 208 210 212 210 208 208 209 211 210 208 207 210 212 209 205 205 206 205 205 205 205 207 211 214 214 216 218 222 230 233
5 6 6 6 4 0 0 1 359 357 0 2 356 346 335 324 306 283 266 256 251 251 255 253 246 246 248 243 236 234 231 227 227 232 233 230 230 232 231 231 229 228 229 225 218 216 215 213 216 217 216 217 216 214 213 213 215 217 217 215 211 210 210 208 209 211 210 211 211 208 204 202 204 206 206 209 210 211 215 219 220 220 222 228 234
11 8 8 6 4 3 3 3 2 1 1 4 5 1 351 339 325 303 276 261 254 252 255 257 252 248 249 247 242 238 235 233 232 236 237 231 229 230 229 228 228 230 231 224 216 214 213 211 215 217 216 218 219 219 220 221 222 222 222 220 217 217 216 214 215 215 212 211 210 210 211 214 215 215 214 218 220 216 214 221 224 223 222 225 228
17 10 9 7 5 6 6 5 5 6 5 5 7 8 3 353 341 324 293 269 261 258 256 259 259 253 249 249 247 242 238 236 235 237 238 235 232 231 229 227 228 231 232 227 220 216 212 212 216 219 218 219 220 220 222 224 224 224 223 220 220 223 225 225 224 220 216 217 216 214 217 221 222 220 220 222 225 223 218 222 229 228 224 223 221
20 13 11 9 7 8 8 8 8 8 8 9 9 12 12 6 356 343 319 286 270 267 263 259 260 260 255 252 251 249 246 243 239 238 237 236 234 229 225 226 227 226 226 224 220 218 215 213 215 217 217 218 219 220 221 222 222 222 222 221 222 225 226 227 227 223 218 222 223 219 219 225 224 222 224 226 226 227 225 224 232 233 225 223 223
20 16 13 11 10 10 10 10 11 10 10 11 11 14 17 16 8 1 352 327 296 282 272 260 254 257 260 257 252 249 249 247 244 242 239 237 235 228 220 222 226 226 223 219 216 219 220 215 209 214 217 218 220 221 220 220 219 220 222 222 223 226 226 226 228 227 224 225 229 226 224 229 228 225 227 225 219 221 226 227 235 239 231 226 225
19 18 15 13 12 12 12 12 12 11 10 11 13 15 19 21 19 13 8 356 331 311 293 274 262 260 262 259 246 236 237 241 243 243 242 239 236 232 224 220 223 227 224 219 216 215 216 210 204 211 218 217 217 219 219 219 218 219 222 223 224 225 225 226 228 231 232 233 235 235 231 230 229 226 225 222 216 217 226 231 236 239 232 223 218
20 20 17 15 14 13 13 14 13 13 13 12 14 16 17 20 22 20 16 9 358 343 326 303 282 269 265 262 252 240 237 239 239 239 240 238 233 235 232 222 220 225 224 222 220 213 214 215 209 213 219 219 216 216 215 216 215 216 218 220 222 224 223 225 226 228 231 232 233 235 234 230 228 227 229 230 228 228 232 232 232 233 228 222 222
23 22 18 16 15 15 14 14 14 15 15 15 16 17 17 18 19 21 19 15 11 5 355 336 312 293 279 268 260 251 245 244 242 237 236 235 232 233 233 225 222 226 227 227 226 219 218 216 211 217 223 222 219 217 215 214 213 212 214 218 222 225 225 226 226 225 227 229 229 231 234 235 234 237 240 239 232 230 233 233 233 234 229 221 220
25 23 20 17 16 16 16 15 15 15 15 17 18 17 17 16 17 19 19 18 16 13 8 1 346 329 312 291 275 259 245 241 243 239 232 232 232 231 231 229 227 229 230 229 227 224 222 219 221 228 229 221 218 217 211 209 210 211 215 220 222 223 223 222 222 222 223 226 228 231 237 240 239 241 243 239 233 231 232 230 229 228 221 208 197
26 25 24 20 17 16 17 17 18 19 18 19 20 19 19 18 15 15 17 19 19 17 14 11 6 357 345 328 309 283 257 242 241 239 233 231 232 230 228 228 228 229 229 227 226 228 228 227 230 235 233 224 220 215 206 203 209 213 216 218 217 216 217 217 217 218 219 223 228 231 237 240 239 237 237 234 230 222 213 209 209 201 191 189 186
26 26 26 27 24 20 18 18 20 22 20 19 20 21 22 23 21 18 16 17 18 19 19 17 14 11 4 356 339 304 276 257 246 241 236 234 233 230 227 225 226 233 234 229 227 230 231 230 231 236 240 230 214 207 202 200 206 210 208 207 208 208 208 208 209 211 214 217 220 223 226 227 226 225 221 216 210 201 196 199 197 185 182 190 193
27 28 29 32 32 29 25 23 21 22 22 21 20 20 22 23 24 23 21 18 16 18 21 21 20 19 13 6 358 336 309 284 260 245 237 235 234 232 230 225 222 233 238 232 230 232 232 231 230 232 234 220 204 199 197 197 202 205 202 200 202 201 200 200 202 205 207 207 207 206 205 203 198 193 193 198 198 195 196 200 199 194 195 199 201
27 29 31 32 33 32 31 29 26 23 22 22 21 20 20 20 21 23 23 21 19 18 19 21 23 25 24 19 12 4 354 334 299 265 246 237 233 232 234 232 227 230 235 231 229 229 229 229 228 226 219 206 201 201 196 193 197 200 199 201 202 200 199 199 199 201 198 193 188 183 181 184 183 181 187 194 195 192 192 195 197 201 209 216 213
27 29 30 31 30 29 29 30 30 26 23 24 23 22 21 19 19 21 21 21 21 20 19 19 19 23 26 26 25 21 16 8 349 312 277 254 237 231 235 237 232 231 233 230 224 224 228 227 223 219 213 204 204 205 196 191 194 197 198 201 202 203 203 201 198 193 185 177 175 174 175 180 180 179 183 187 186 186 189 192 197 202 213 226 220
26 27 28 29 28 26 25 27 29 27 25 25 26 25 23 22 21 20 19 19 20 21 23 23 21 21 22 23 27 28 26 25 20 1 330 298 255 234 237 243 238 232 232 231 225 224 228 225 217 216 214 207 206 205 198 194 195 198 200 203 202 201 199 192 184 179 177 176 177 177 177 177 176 178 182 185 186 191 197 200 211 218 220 227 226
25 26 27 27 26 26 25 25 27 28 26 25 27 27 25 25 25 23 21 20 19 20 22 23 23 24 24 22 24 27 27 29 34 33 22 0 330 274 254 256 247 237 235 235 230 226 223 217 211 213 213 208 205 203 200 197 194 192 196 201 200 199 195 188 182 180 184 186 184 183 182 181 183 187 189 193 199 207 214 216 224 232 234 236 238
26 26 26 27 26 26 27 27 27 29 29 28 27 27 25 25 25 24 23 22 21 19 18 20 22 24 25 26 26 26 25 27 34 43 46 40 34 37 41 34 230 223 227 230 227 222 217 208 202 202 201 200 200 199 195 193 189 188 193 197 198 199 198 192 186 183 182 180 178 180 181 182 186 191 193 201 209 213 220 225 227 234 240 240 241
27 26 26 27 26 25 27 28 27 28 31 32 31 29 27 25 25 26 26 23 21 20 18 18 21 23 23 25 28 30 30 30 34 43 51 55 56 56 58 66 86 115 146 160 160 170 184 186 187 189 190 192 196 195 191 186 183 183 184 183 183 184 180 175 171 168 165 164 167 174 178 182 190 198 203 210 215 213 217 220 220 225 229 228 230
27 27 26 26 25 24 25 26 26 25 27 29 30 30 30 27 25 27 28 25 23 23 20 19 21 22 21 23 26 30 34 39 47 53 58 64 70 75 78 79 81 88 96 102 108 115 119 122 135 155 166 170 172 172 168 163 160 158 156 153 151 149 146 145 147 149 152 155 160 171 183 193 204 212 213 213 211 204 198 195 198 205 208 209 214
27 27 27 27 27 25 24 25 25 24 22 21 22 25 28 27 25 25 26 26 25 24 23 24 25 23 23 25 30 33 35 37 45 57 66 72 78 86 92 94 91 88 87 89 94 102 108 112 115 122 131 135 134 135 136 136 137 137 137 137 137 137 138 139 138 136 136 136 141 171 196 201 202 201 199 197 193 188 184 182 180 174 166 156 144
27 28 28 28 28 26 24 24 23 23 23 20 17 19 21 21 21 21 21 24 26 26 25 27 29 26 22 21 25 29 31 31 36 46 57 62 68 79 90 98 102 102 99 98 103 110 115 117 118 120 126 128 126 124 123 123 127 130 131 132 135 139 145 150 151 148 141 133 124 122 151 168 162 156 152 149 150 155 165 169 167 163 160 152 142
26 27 27 27 27 26 24 24 23 23 25 23 19 17 16 15 16 16 17 19 24 28 29 30 31 31 26 20 19 21 23 26 33 44 54 59 63 71 78 80 84 89 93 99 106 108 110 113 113 113 115 119 121 121 119 116 118 122 123 123 124 126 130 133 134 134 132 128 122 115 115 112 102 103 113 123 138 153 164 169 169 167 164 160 161
28 27 24 23 25 25 24 23 24 23 24 24 23 20 16 13 13 13 13 13 16 22 29 33 33 34 35 31 28 27 27 30 34 42 52 59 60 61 63 65 67 68 71 77 83 84 84 89 92 94 95 97 101 104 105 104 102 101 103 105 104 103 103 102 103 104 107 113 117 120 125 130 134 148 159 164 170 170 165 164 162 153 149 152 155
31 28 24 22 21 22 22 22 23 23 23 22 23 22 19 16 14 12 10 9 9 10 15 23 29 31 33 34 35 36 36 37 37 38 46 54 54 51 50 52 56 58 59 61 65 66 66 67 69 71 73 74 76 79 83 88 89 88 89 90 89 88 88 88 92 96 102 114 129 141 150 158 165 170 170 167 164 160 152 150 150 147 148 155 152
29 26 27 25 20 18 19 20 20 20 21 20 20 20 19 17 15 13 9 7 7 5 4 7 12 17 21 24 27 32 34 35 35 35 36 38 41 42 40 39 44 51 52 50 52 54 55 56 58 59 61 63 63 64 66 71 74 76 78 79 82 88 96 105 115 125 133 141 148 151 154 158 159 160 160 157 151 148 146 144 141 138 137 134 125
24 19 24 27 21 15 15 18 17 17 18 18 18 18 17 16 14 13 11 9 8 6 5 4 0 357 359 3 7 12 20 25 25 26 26 25 24 25 23 23 29 40 44 43 45 47 47 48 51 52 55 60 63 63 65 68 71 78 85 94 108 124 135 140 143 143 142 143 145 147 150 150 147 142 137 133 132 135 140 140 135 130 125 113 102
19 12 14 21 20 14 12 14 15 14 15 16 16 15 14 14 13 12 11 10 9 7 7 6 0 355 353 350 342 342 352 3 10 15 18 19 19 21 23 24 26 31 35 36 38 42 43 46 50 51 54 62 70 77 87 97 106 115 127 137 144 147 146 144 142 140 139 140 142 142 142 141 139 137 136 135 134 133 133 133 131 124 115 104 95
19 10 6 9 11 10 9 9 10 14 16 15 15 14 13 13 13 11 9 9 9 7 6 5 1 358 355 349 339 332 332 336 345 358 3 6 12 21 29 30 26 24 25 25 27 32 39 45 55 63 71 84 98 108 117 122 126 133 140 143 143 141 138 137 135 134 134 135 135 136 137 137 132 128 128 132 134 132 128 125 125 121 113 102 92
13 7 4 5 4 3 4 2 4 13 17 12 8 10 12 12 11 10 9 8 7 6 4 2 1 2 1 357 356 359 353 344 344 349 351 359 12 20 24 27 23 18 19 22 25 32 43 58 74 87 98 110 117 121 123 126 130 136 138 139 138 136 134 133 133 131 130 131 132 135 137 133 125 117 114 114 114 114 109 100 95 99 100 95 90
1 353 358 5 4 359 358 356 358 6 9 5 2 6 8 8 8 8 8 8 7 6 5 3 3 5 5 2 5 12 12 8 11 13 10 18 29 29 26 30 31 28 30 37 45 53 63 81 101 112 120 126 128 130 132 132 133 135 134 134 133 130 127 125 125 125 123 120 119 121 121 118 112 108 108 109 108 110 111 101 85 81 82 82 83
358 348 352 4 9 4 356 354 353 356 358 358 359 1 2 3 5 6 5 5 6 7 7 6 7 8 7 7 11 18 20 22 25 23 19 24 31 33 36 41 43 43 47 54 66 74 80 95 113 123 129 132 132 133 133 133 132 131 130 128 124 119 115 114 114 114 112 109 109 112 113 111 106 102 101 101 99 100 103 102 96 90 83 78 75
5 356 358 9 17 13 1 354 350 350 352 353 352 353 356 359 1 2 4 5 6 7 7 8 9 8 7 10 16 21 22 21 20 18 17 21 26 31 38 44 45 47 54 61 72 82 88 98 109 118 122 126 128 128 127 126 125 124 122 119 115 113 112 114 114 112 110 108 108 107 102 98 96 97 98 96 93 90 90 89 85 81 77 75 73
11 7 5 9 15 13 4 356 352 350 349 347 346 349 353 355 355 359 2 5 6 7 8 10 9 6 7 11 17 21 21 19 18 19 20 25 36 44 45 46 49 55 62 70 79 88 94 98 103 106 109 112 116 120 120 117 115 116 116 114 112 112 114 118 118 114 108 103 102 101 97 95 99 104 99 90 84 83 83 79 74 73 74 75 78
15 15 12 10 10 7 360 353 350 350 351 350 349 350 351 350 352 358 1 2 5 7 8 11 10 4 2 7 15 23 23 19 20 23 25 34 55 65 62 61 68 76 76 76 82 89 94 96 98 100 103 106 107 110 112 111 110 114 115 111 105 103 106 109 107 104 102 106 107 103 93 86 89 94 89 80 75 76 82 83 81 81 84 87 87
14 9 9 9 8 4 360 356 354 355 357 355 352 350 348 348 353 359 360 1 4 5 6 10 12 7 3 4 12 22 23 19 19 24 26 36 58 71 70 69 79 88 88 85 87 89 90 93 96 96 99 104 107 111 115 114 112 116 118 116 115 114 109 98 91 89 93 97 95 89 82 77 78 80 78 79 80 79 82 91 95 89 84 84 80
10 357 359 5 4 1 2 3 1 0 360 357 353 351 348 347 351 357 359 0 3 3 2 3 7 9 9 9 12 18 21 21 21 23 25 30 41 53 60 67 81 91 92 91 91 88 85 90 95 94 96 101 105 112 118 117 118 123 122 119 119 120 116 112 110 109 107 93 78 73 76 81 83 79 72 75 79 76 75 82 85 81 78 77 71
352 345 349 354 356 357 358 359 359 0 359 356 354 351 347 344 349 355 358 358 359 359 358 358 359 3 8 11 12 12 14 18 21 21 22 25 28 33 44 59 73 81 84 91 97 93 87 85 84 85 92 94 92 101 114 116 118 123 124 124 127 129 132 137 134 127 121 108 89 77 80 84 82 86 93 76 58 51 62 69 62 60 62 58 51
337 340 340 340 347 352 351 350 353 355 354 352 353 352 349 347 348 352 355 356 357 356 355 355 354 352 355 4 9 8 7 12 15 14 14 18 20 25 32 42 54 62 62 71 94 102 91 80 79 82 90 92 90 97 107 113 122 126 124 125 131 137 148 147 135 127 127 121 110 103 98 68 20 326 137 82 32 359 357 42 50 61 71 57 41
330 334 334 336 343 349 350 348 348 346 344 345 348 349 350 349 346 345 349 355 358 355 353 353 353 349 344 349 358 2 5 10 11 10 9 11 12 15 21 27 35 46 50 52 65 70 55 58 70 83 91 89 87 91 98 119 152 139 124 133 147 151 156 150 133 125 136 135 133 145 150 113 26 341 329 334 323 320 319 302 296 64 96 63 41
330 334 338 342 346 350 349 347 344 341 339 338 338 340 343 345 344 341 343 347 350 351 351 353 356 354 348 345 350 354 355 359 6 11 14 11 8 8 10 7 7 11 16 18 20 18 26 43 58 71 75 71 61 81 108 151 160 145 174 212 201 174 161 153 140 134 147 134 120 122 121 110 311 295 290 276 258 245 250 262 251 228 196 229 313
358 0 357 350 347 348 347 344 340 338 334 331 330 333 335 336 338 338 337 338 342 347 349 354 358 359 356 354 354 354 352 357 7 13 15 13 15 18 15 6 7 12 9 353 338 329 327 333 332 329 329 306 277 272 237 172 157 175 211 220 202 175 165 164 160 158 153 128 76 43 10 326 300 304 312 298 270 243 235 239 230 214 210 220 229
29 25 8 354 349 347 347 345 343 339 333 328 325 325 327 330 333 335 334 334 337 341 344 350 356 360 1 4 6 6 5 9 14 15 18 22 25 24 17 12 13 14 3 346 342 340 337 334 329 322 314 297 272 256 240 209 195 203 215 210 190 179 180 181 178 175 168 162 171 286 293 293 294 300 306 299 283 256 244 238 218 199 198 212 215
21 13 0 353 351 350 349 349 347 343 337 330 323 319 319 324 330 332 331 332 333 334 337 343 348 351 355 2 9 12 12 13 14 14 9 5 8 9 8 5 3 359 354 348 344 342 341 336 328 325 322 310 277 240 228 221 214 212 214 207 197 194 192 189 193 207 220 234 265 291 295 300 305 307 296 281 267 252 247 234 199 179 178 196 215